MYNNMKJP

Guest
Details From MYNN - Nassau Intl
To MKJP - Norman Manley Intl
Flight Number -
Tags Generated
Created
Modified
Stats Distance 428 nm / 793 km
Max Altitude 0 ft / 0 m
Waypoints 3
Social Downloads 1
Likes 0
Share VATSIM

Download

Looking for another format? Having issues loading an existing format? Contact us
Advertisement - Login to hide

Notes

Generated

Route

MYNN MLY71 MKJP

ID Type Via Altitude Latitude Longitude Leg Dist Tot Dist Heading (true) Name
O MYNN APT - 0 ft / 0 m 25.03595˚ -77.48200˚ - 0 nm - -
MLY71 FIX - 0 ft / 0 m 17.94091˚ -76.80520˚ 427 nm 427 nm 175° / 175° -
O MKJP APT - 0 ft / 0 m 17.94026˚ -76.79945˚ 0 nm 428 nm 97° / 97° -

Altitude Profile

Advertisement - Login to hide

Weather


0- 5 10 15 20 25 30 35+ Temperature / ° C

Clouds and Precipitation
Forecast for 2018-05-26 18:00 UTC. Updated 5 hours ago

Ground ~20,000 ft ~40,000 ft Winds

MYNN

Details ICAO MYNN (NAS)
Name Nassau Intl
Region Bahamas
Timezone America/Nassau (UTC-4.0)
Stats Elevation 16 ft / 5 m (AMSL)
Location 25.038596° -77.466621°
Runways 2
Magnetic Variation 8.257° W

METAR

MYNN 262100Z 16009KT 6000 RA BKN010TCU OVC080 23/22 A2993 RMK TCU/OVHD/N

Decode

TAF

Not found

Departure Runways

ID Width Length Bearing (true) Bearing (mag) Surface Threshold Offset Overrun Length
09 151 ft / 46 m 8,311 ft / 2,533 m 89.62° 97.88° Asphalt 0 ft / 0 m 0 ft / 0 m
14 151 ft / 46 m 11,364 ft / 3,464 m 134.83° 143.09° Asphalt 226 ft / 69 m 0 ft / 0 m
27 151 ft / 46 m 8,311 ft / 2,533 m 269.64° 277.90° Asphalt 0 ft / 0 m 0 ft / 0 m
32 151 ft / 46 m 11,364 ft / 3,464 m 314.84° 323.10° Asphalt 0 ft / 0 m 0 ft / 0 m

MKJP

Details ICAO MKJP (KIN)
Name Norman Manley Intl
Region Jamaica
Timezone Unknown (UTC+0.0)
Stats Elevation 10 ft / 3 m (AMSL)
Location 17.935665° -76.787560°
Runways 1
Magnetic Variation 7.591° W

METAR

MKJP 262100Z 13018KT 9999 FEW020 30/24 Q1010

Decode

TAF

TAF MKJP 261715Z 2618/2718 13025KT 9999 FEW020 BECMG 2702/2704 13015KT

Decode

Destination Runways

ID Width Length Bearing (true) Bearing (mag) Surface Threshold Offset Overrun Length
12 150 ft / 46 m 8,912 ft / 2,717 m 112.09° 119.68° Asphalt 0 ft / 0 m 0 ft / 0 m
30 150 ft / 46 m 8,912 ft / 2,717 m 292.10° 299.69° Asphalt 0 ft / 0 m 0 ft / 0 m

Approach Navaids

Runway Type Ident Frequency Range Bearing (true) Bearing (mag) Slope Elevation
12 Localiser IMLY 109.10 MHz 18 nm / 33 km 115.09° 122.68° - 10 ft / 3 m (AMSL)
12 Glidescope IMLY 109.10 MHz 10 nm / 19 km 115.09° 122.68° 3.00° 8 ft / 2 m (AMSL)

Popular Alternatives